Location: State Camp
(41.2367°N, 77.7828°W)
Time: 08:15:20
(UTC-05:00)

Daily predictions for brighter satellites

Satellite Brightness Start Highest point End
(mag) Time Altitude Azimuth Time Altitude Azimuth Time Altitude Azimuth
Cosmos 540 Rocket 3.8 17:34:15 10° S 17:39:09 46° ESE 17:44:06 10° NNE
USA 215 3.9 17:37:13 10° E 17:43:08 38° NNE 17:49:03 10° NW
Cosmos 2237 Rocket 2.4 17:37:45 10° S 17:43:12 54° ESE 17:48:41 10° NNE
Cosmos 44 Rocket 3.5 17:38:23 10° SSW 17:43:32 84° WNW 17:48:37 10° NNE
Cosmos 2084 3.3 17:39:56 10° SW 17:43:50 75° NW 17:47:38 10° NNE
NOSS 0 Rocket 4.0 17:38:59 10° SSW 17:45:08 68° ESE 17:51:19 10° NNE
COSMOS 2428 3.7 17:42:31 10° SW 17:48:01 48° WNW 17:53:33 10° NNE
BREEZE-M DEB (TANK) 3.5 17:39:44 10° NW 17:48:38 66° SW 17:51:50 10° SE
Cosmos 1300 2.9 17:46:23 10° N 17:50:08 49° E 17:53:51 10° SSE
SL-16 R/B 3.2 17:45:44 10° SSE 17:50:18 26° ESE 17:54:53 10° NE
Cosmos 1340 Rocket 3.8 17:47:22 10° SSE 17:50:39 26° E 17:53:57 10° NE
Cosmos 1634 Rocket 4.0 17:45:29 10° N 17:51:41 74° E 17:57:50 10° SSE
SL-14 R/B 3.5 17:48:05 10° SSE 17:51:51 47° E 17:55:42 10° NNE
Abrixas 2.5 17:50:10 10° SW 17:53:04 62° SSE 17:55:48 11° ENE
Cosmos 1461 4.2 17:50:30 10° SSE 17:53:51 23° ESE 17:57:06 10° ENE
Cosmos 2058 3.4 17:50:46 10° SSE 17:54:33 38° E 17:58:22 10° NNE
Cosmos 1484 Rocket 2.9 17:51:37 10° SSE 17:55:26 54° ENE 17:59:21 10° N
CZ-4 R/B 4.4 17:55:11 10° SSE 17:59:20 89° ENE 18:03:30 10° NNW
Cosmos 304 Rocket 4.4 17:56:56 10° SSE 18:01:16 34° ESE 18:05:37 10° NE
Cosmos 2297 4.2 17:56:07 10° N 18:01:24 37° ENE 18:06:40 10° SE
Lacrosse 5 4.0 18:04:08 10° NW 18:06:54 14° N 18:09:39 10° NNE
Cosmos 1844 Rocket 4.2 18:03:09 10° NW 18:08:26 41° WSW 18:13:39 10° S
Meteor 1-28 Rocket 3.4 18:11:31 10° NNE 18:15:07 45° E 18:18:42 10° S
OTV 4 3.1 18:13:41 10° WSW 18:15:46 18° SSW 18:17:51 10° SSE
Cosmos 1125 Rocket 3.8 18:11:02 10° NNW 18:16:13 70° WSW 18:21:22 10° S
Cosmos 1356 Rocket 4.2 18:12:52 10° SSE 18:16:16 27° E 18:19:10 13° NE
Transit 2A Rocket 4.4 18:12:13 10° NNW 18:16:34 77° ENE 18:20:52 10° SE
Meteor 2-10 3.9 18:12:16 10° N 18:17:22 70° E 18:22:36 10° SSE
CZ-2C R/B 4.2 18:13:07 10° SSW 18:17:42 36° W 18:22:11 10° NNW
CENTAUR R/B 3.9 18:12:27 10° WSW 18:18:04 34° NW 18:24:21 10° NNE
YAOGAN 1 4.0 18:15:05 10° S 18:19:10 41° W 18:23:17 10° NNW
Cosmos 1707 Rocket 4.0 18:15:36 10° N 18:19:36 35° ENE 18:23:36 10° SE
COSMO-SKYMED 1 2.5 18:15:18 10° NNE 18:19:40 80° ESE 18:24:00 10° S
Thor Agena Rocket 4.4 18:19:09 10° N 18:24:13 51° WNW 18:29:12 10° SW
Resurs 01 Rocket 2.8 18:26:17 20° E 18:27:34 22° ENE 18:31:01 10° NNE
FENGYUN 3A 4.4 18:23:45 10° ESE 18:28:14 28° ENE 18:32:45 10° N
Lacrosse 5 rocket 1.2 18:25:58 10° NW 18:29:46 79° SW 18:33:47 10° SE
Meteor 1-11 4.3 18:24:18 10° S 18:29:58 87° W 18:35:47 10° N
Cosmos 1666 Rocket 3.9 18:26:05 10° SSE 18:30:07 39° E 18:34:12 10° NNE
Cosmos 1980 4.3 18:25:52 10° SW 18:31:26 57° WNW 18:37:04 10° NNE
Timation 1 Rocket 4.3 18:26:46 10° NNW 18:32:48 74° ENE 18:38:47 10° SSE
METEOR-M 4.1 18:28:06 10° SSE 18:33:19 57° ENE 18:38:34 10° N
Cosmos 1184 Rocket 3.7 18:30:34 10° SSE 18:33:17 28° E 18:33:17 28° E
Cosmos 1538 Rocket 4.2 18:31:09 10° S 18:36:15 52° ESE 18:40:44 14° NNE
Cosmos 2151 3.9 18:32:31 10° SSW 18:36:35 48° WNW 18:40:40 10° N
Iridium 4 Rocket 3.9 18:35:34 10° SE 18:39:28 29° E 18:39:48 29° ENE
Cosmos 2279 Rocket 4.1 18:34:10 10° N 18:40:24 80° W 18:46:37 10° S
ATLAS 5 CENTAUR R/B 4.3 18:40:11 10° NNE 18:41:18 10° NNE 18:41:50 10° NNE
ALOS 2.7 18:42:18 10° SE 18:46:35 38° ENE 18:50:53 10° N
NOAA 12 4.0 18:44:13 10° SSE 18:49:26 86° ENE 18:54:44 10° NNW
Cosmos 2333 Rocket 3.7 18:45:45 10° WSW 18:50:52 34° WNW 18:56:00 10° N
Cosmos 2219 Rocket 4.1 18:47:31 10° WSW 18:52:15 27° NW 18:56:59 10° N
Cosmos 1626 2.0 18:50:29 10° S 18:54:13 88° E 18:56:51 19° N
Cosmos 1603 4.3 18:49:50 10° SSE 18:54:44 32° ESE 18:55:01 32° E
SJ-6B 2.8 18:54:23 10° SSE 18:58:27 89° E 19:02:36 10° NNW
Nadezhda 4 Rocket 3.9 18:53:54 10° S 19:00:08 78° E 19:06:28 10° N
Aureole 2 Rocket 4.4 18:57:05 10° SW 19:00:30 32° WNW 19:04:11 10° N
Cosmos 2242 Rocket 3.6 18:56:22 10° N 19:00:42 52° E 19:05:02 10° SSE
Cosmos 1703 3.9 18:58:47 10° SSW 19:02:36 54° W 19:06:26 10° N
Cosmos 2278 Rocket 4.0 18:57:44 10° NW 19:02:46 33° WSW 19:07:48 10° SSW
Cosmos 1455 2.1 19:02:31 10° N 19:06:20 87° W 19:10:09 10° S
Cosmos 1805 Rocket 4.4 19:04:18 10° SSW 19:08:38 51° W 19:13:00 10° N
SL-19 R/B 4.2 19:07:05 10° SSE 19:12:59 82° ENE 19:18:38 10° NNW
Lacrosse 4 Rocket 2.6 19:09:58 10° NNW 19:12:09 28° N 19:12:09 28° N
Cosmos 773 Rocket 3.8 19:12:23 10° SSW 19:17:32 82° ESE 19:19:20 42° NNE
FREGAT/IRIS 4.0 19:15:48 10° S 19:18:41 40° W 19:21:36 10° NNW
Cosmos 1092 Rocket 3.9 19:14:10 10° S 19:20:29 81° E 19:26:51 10° N
USA 215 3.3 19:21:36 25° SE 19:25:46 80° SW 19:32:22 10° NW
Sich 1 3.9 19:21:42 10° SSW 19:26:00 51° W 19:29:41 14° N
Cosmos 2237 Rocket 4.2 19:23:07 10° WSW 19:27:36 24° NW 19:32:06 10° N
Cosmos 2369 Rocket 3.8 19:27:15 10° N 19:29:27 21° N 19:29:27 21° N
Cosmos 1461 4.3 19:29:04 10° WSW 19:32:51 33° NW 19:33:37 30° NNW
Cosmos 1633 Rocket 4.0 19:29:15 10° SSW 19:33:30 47° WNW 19:36:07 21° NNW
SL-16 R/B 3.2 19:28:44 10° SW 19:34:07 44° WNW 19:37:58 19° N
Cosmos 2195 Rocket 4.3 19:39:36 10° S 19:45:42 83° E 19:46:13 75° NNE
Lacrosse 5 4.2 19:48:48 10° NNW 19:50:06 13° N 19:50:06 13° N
CZ-3A R/B 3.5 19:55:30 10° WNW 19:59:56 55° SW 20:01:31 42° S
Resurs 01 Rocket 3.1 20:03:50 35° W 20:03:50 35° W 20:07:56 10° NNW
CZ-4C R/B 4.4 20:00:14 10° NNW 20:02:59 19° N 20:02:59 19° N
USA 229 DEB 4.0 20:04:35 10° SW 20:11:21 61° NW 20:12:13 56° NNW
USA 229 4.0 20:04:41 10° SW 20:11:27 61° NW 20:12:17 57° NNW
